Norfolk, NE

3:45 PM CST on December 18, 2017 (GMT -0600)
Stefan Memorial

Weather History for KOFK - March, 2012

Change the Weather History Date:

Thursday, March 29, 2012

  Actual Average Record
Temperature  
Mean Temperature 61 °F 43 °F  
Max Temperature 71 °F 55 °F 88 °F (1986)
Min Temperature 50 °F 31 °F 5 °F (1969)
Degree Days  
Heating Degree Days 4 22  
Month to date heating degree days 378 812  
Since 1 July heating degree days 4988 5905  
Cooling Degree Days 0 0  
Month to date cooling degree days 21 0  
Year to date cooling degree days 21 0  
Growing Degree Days 12 (Base 50)    
Moisture  
Dew Point 49 °F    
Average Humidity 70    
Maximum Humidity 89    
Minimum Humidity 51    
Precipitation  
Precipitation 0.05 in 0.08 in 1.14 in (1976)
Month to date precipitation 0.58 1.61  
Year to date precipitation 2.49 2.96  
Snow  
Snow 0.00 in 0.20 in - ()
Month to date snowfall T 4.8  
Since 1 July snowfall 15.3 27.6  
Snow Depth 0.00 in    
Sea Level Pressure  
Sea Level Pressure 29.77 in    
Wind  
Wind Speed 9 mph (SE)    
Max Wind Speed 24 mph    
Max Gust Speed 30 mph    
Visibility 9 miles    
Events Rain , Thunderstorm    
T = Trace of Precipitation, MM = Missing Value Source: NWS Daily Summary

Daily Weather History Graph

Daily Weather History Graph

Search for Another Location

Airport or City:

Trip Planner

Search our weather history database for the weather conditions in past years. The results will help you decide how hot, cold, wet, or windy it might be!

Date:

Astronomy

Mar. 29, 2012 Rise Set
Actual Time 7:16 AM CDT 7:52 PM CDT
Civil Twilight 6:48 AM CDT 8:20 PM CDT
Nautical Twilight 6:15 AM CDT 8:53 PM CDT
Astronomical Twilight 5:41 AM CDT 9:28 PM CDT
Moon 11:21 AM CDT (3/29) 1:49 AM CDT (3/29)
Length of Visible Light 13h 32m
Length of Day
12h 35m
Waxing Crescent, 39% of the Moon is Illuminated
Mar 29
Waxing Crescent
Mar 30
First Quarter
Apr 6
Full
Apr 13
Last Quarter
Apr 21
New

Hourly Weather History & Observations

Time (CDT) Temp. Dew Point Humidity Pressure Visibility Wind Dir Wind Speed Gust Speed Precip Events Conditions
12:56 AM 55.9 °F 37.9 °F 51% 29.86 in 10.0 mi ESE 6.9 mph - N/A   Mostly Cloudy
1:56 AM 55.9 °F 39.0 °F 53% 29.85 in 10.0 mi ESE 8.1 mph - N/A   Scattered Clouds
2:56 AM 57.0 °F 39.0 °F 51% 29.84 in 10.0 mi ESE 10.4 mph - N/A   Clear
3:56 AM 57.0 °F 39.9 °F 53% 29.83 in 10.0 mi ESE 13.8 mph - N/A   Partly Cloudy
4:10 AM 57.2 °F 41.0 °F 55% 29.85 in 10.0 mi ESE 13.8 mph - N/A   Mostly Cloudy
4:37 AM 57.2 °F 42.8 °F 59% 29.85 in 10.0 mi ESE 12.7 mph - N/A   Overcast
4:56 AM 59.0 °F 44.1 °F 58% 29.82 in 10.0 mi SE 17.3 mph - N/A   Overcast
5:56 AM 59.0 °F 45.0 °F 60% 29.82 in 10.0 mi SE 15.0 mph 23.0 mph N/A   Overcast
6:56 AM 59.0 °F 43.0 °F 55% 29.82 in 10.0 mi SE 18.4 mph 28.8 mph N/A   Overcast
7:56 AM 57.9 °F 44.1 °F 60% 29.82 in 10.0 mi SE 16.1 mph 27.6 mph N/A   Clear
8:56 AM 59.0 °F 45.0 °F 60% 29.82 in 10.0 mi SE 12.7 mph 19.6 mph N/A   Clear
9:56 AM 62.1 °F 50.0 °F 65% 29.80 in 10.0 mi SSE 19.6 mph 23.0 mph N/A   Clear
10:47 AM 64.4 °F 51.8 °F 64% 29.79 in 10.0 mi SSE 19.6 mph 24.2 mph N/A   Mostly Cloudy
10:56 AM 64.9 °F 51.1 °F 61% 29.77 in 10.0 mi SSE 18.4 mph - N/A   Mostly Cloudy
11:56 AM 68.0 °F 52.0 °F 56% 29.77 in 10.0 mi SSE 10.4 mph 17.3 mph N/A   Scattered Clouds
12:13 PM 66.2 °F 53.6 °F 64% 29.78 in 10.0 mi SE 9.2 mph - N/A   Mostly Cloudy
12:56 PM 68.0 °F 54.0 °F 61% 29.77 in 9.0 mi Variable 5.8 mph - N/A   Mostly Cloudy
1:56 PM 66.0 °F 54.0 °F 65% 29.75 in 9.0 mi ESE 5.8 mph - N/A   Overcast
2:56 PM 66.0 °F 54.0 °F 65% 29.74 in 8.0 mi Calm Calm - N/A   Overcast
3:35 PM 69.8 °F 55.4 °F 60% 29.74 in 8.0 mi NW 6.9 mph - N/A   Overcast
3:56 PM 68.0 °F 55.0 °F 63% 29.72 in 8.0 mi North 9.2 mph - N/A   Overcast
4:37 PM 69.8 °F 55.4 °F 60% 29.73 in 8.0 mi East 6.9 mph - N/A   Overcast
4:56 PM 69.1 °F 55.0 °F 61% 29.71 in 8.0 mi ENE 4.6 mph - N/A   Mostly Cloudy
5:56 PM 68.0 °F 55.0 °F 63% 29.69 in 8.0 mi Calm Calm - N/A   Overcast
6:56 PM 64.9 °F 55.0 °F 70% 29.70 in 8.0 mi Calm Calm - N/A   Partly Cloudy
7:56 PM 64.0 °F 55.0 °F 73% 29.70 in 9.0 mi Calm Calm - N/A Thunderstorm Scattered Clouds
8:10 PM 62.6 °F 55.4 °F 77% 29.72 in 3.0 mi NNW 6.9 mph - 0.01 in Rain Rain
8:56 PM 59.0 °F 54.0 °F 83% 29.72 in 10.0 mi WNW 11.5 mph - 0.05 in   Clear
9:56 PM 55.9 °F 51.1 °F 84% 29.73 in 10.0 mi NW 9.2 mph - N/A   Scattered Clouds
10:56 PM 54.0 °F 48.9 °F 83% 29.72 in 10.0 mi West 9.2 mph - N/A   Clear
11:56 PM 52.0 °F 48.0 °F 86% 29.74 in 10.0 mi West 3.5 mph - N/A   Clear